Wetterdaten: Montag, 23.03.2015
Datum Zeit Temp. A. Feuchte A. Luftdruck Regen Wind Richtung Richtung Sonnenschein ET UV Solar Taupunkt Windchill Windben Empfang
23.03.2015 00:00 3,7 C 73 % 1020,1 hPa 0,0 l/m 0,0 km/h (0 Bft) SO 145 0 min 0,000 mm 0,0 UV-I 0 W/m -0,7 C 3,7 C 0,0 km/h (0 Bft) 0,00 %
23.03.2015 00:15 3,6 C 73 % 1020,0 hPa 0,0 l/m 4,3 km/h (1 Bft) SO 145 0 min 0,000 mm 0,0 UV-I 0 W/m -0,8 C 3,6 C 7,9 km/h (2 Bft) 0,00 %
23.03.2015 00:30 3,4 C 73 % 1019,9 hPa 0,0 l/m 6,8 km/h (2 Bft) O 88 0 min 0,000 mm 0,0 UV-I 0 W/m -1,0 C 3,0 C 7,9 km/h (2 Bft) 0,00 %
23.03.2015 00:45 3,2 C 73 % 1020,0 hPa 0,0 l/m 4,7 km/h (1 Bft) O 88 0 min 0,000 mm 0,0 UV-I 0 W/m -1,2 C 3,2 C 7,9 km/h (2 Bft) 0,00 %
23.03.2015 01:00 3,0 C 74 % 1020,0 hPa 0,0 l/m 0,0 km/h (0 Bft) SW 230 0 min 0,000 mm 0,0 UV-I 0 W/m -1,2 C 3,0 C 0,0 km/h (0 Bft) 0,00 %
23.03.2015 01:15 2,8 C 73 % 1019,8 hPa 0,0 l/m 0,4 km/h (0 Bft) O-NO 77 0 min 0,000 mm 0,0 UV-I 0 W/m -1,5 C 2,8 C 4,0 km/h (1 Bft) 0,00 %
23.03.2015 01:30 2,6 C 73 % 1019,7 hPa 0,0 l/m 4,7 km/h (1 Bft) S 178 0 min 0,000 mm 0,0 UV-I 0 W/m -1,7 C 2,6 C 7,9 km/h (2 Bft) 0,00 %
23.03.2015 01:45 2,4 C 68 % 1019,5 hPa 0,0 l/m 10,4 km/h (2 Bft) O 86 0 min 0,000 mm 0,0 UV-I 0 W/m -2,9 C -1,1 C 19,8 km/h (3 Bft) 0,00 %
23.03.2015 02:00 2,2 C 68 % 1019,4 hPa 0,0 l/m 4,3 km/h (1 Bft) SO 130 0 min 0,000 mm 0,0 UV-I 0 W/m -3,1 C 2,2 C 7,9 km/h (2 Bft) 0,00 %
23.03.2015 02:15 2,0 C 68 % 1019,4 hPa 0,0 l/m 8,3 km/h (2 Bft) N-NO 26 0 min 0,000 mm 0,0 UV-I 0 W/m -3,3 C 0,2 C 11,9 km/h (2 Bft) 0,00 %
23.03.2015 02:30 1,8 C 68 % 1019,4 hPa 0,0 l/m 5,4 km/h (1 Bft) O 87 0 min 0,000 mm 0,0 UV-I 0 W/m -3,5 C 1,8 C 7,9 km/h (2 Bft) 0,00 %
23.03.2015 02:45 1,7 C 68 % 1019,3 hPa 0,0 l/m 17,3 km/h (3 Bft) O-SO 117 0 min 0,000 mm 0,0 UV-I 0 W/m -3,6 C -6,2 C 19,8 km/h (3 Bft) 0,00 %
23.03.2015 03:00 1,6 C 68 % 1019,4 hPa 0,0 l/m 4,0 km/h (1 Bft) O-SO 105 0 min 0,000 mm 0,0 UV-I 0 W/m -3,7 C 1,6 C 7,9 km/h (2 Bft) 0,00 %
23.03.2015 03:15 1,4 C 69 % 1019,3 hPa 0,0 l/m 9,7 km/h (2 Bft) O 88 0 min 0,000 mm 0,0 UV-I 0 W/m -3,7 C -1,7 C 11,9 km/h (2 Bft) 0,00 %
23.03.2015 03:30 1,3 C 69 % 1019,1 hPa 0,0 l/m 9,7 km/h (2 Bft) O 89 0 min 0,000 mm 0,0 UV-I 0 W/m -3,7 C -1,8 C 15,8 km/h (3 Bft) 0,00 %
23.03.2015 03:45 1,2 C 68 % 1019,5 hPa 0,0 l/m 9,4 km/h (2 Bft) O-SO 113 0 min 0,000 mm 0,0 UV-I 0 W/m -4,0 C -1,6 C 11,9 km/h (2 Bft) 0,00 %
23.03.2015 04:00 1,1 C 69 % 1019,2 hPa 0,0 l/m 11,5 km/h (2 Bft) O-SO 117 0 min 0,000 mm 0,0 UV-I 0 W/m -3,9 C -3,4 C 15,8 km/h (3 Bft) 0,00 %
23.03.2015 04:15 1,1 C 69 % 1019,3 hPa 0,0 l/m 5,8 km/h (2 Bft) SO 143 0 min 0,000 mm 0,0 UV-I 0 W/m -3,9 C 1,1 C 7,9 km/h (2 Bft) 0,00 %
23.03.2015 04:30 1,1 C 69 % 1019,4 hPa 0,0 l/m 9,7 km/h (2 Bft) O-SO 104 0 min 0,000 mm 0,0 UV-I 0 W/m -3,9 C -2,0 C 11,9 km/h (2 Bft) 0,00 %
23.03.2015 04:45 1,1 C 69 % 1019,2 hPa 0,0 l/m 5,8 km/h (2 Bft) SO 137 0 min 0,000 mm 0,0 UV-I 0 W/m -3,9 C 1,1 C 11,9 km/h (2 Bft) 0,00 %
23.03.2015 05:00 1,1 C 69 % 1019,2 hPa 0,0 l/m 2,9 km/h (1 Bft) S 173 0 min 0,000 mm 0,0 UV-I 0 W/m -3,9 C 1,1 C 7,9 km/h (2 Bft) 0,00 %
23.03.2015 05:15 1,0 C 69 % 1019,4 hPa 0,0 l/m 1,8 km/h (1 Bft) O 90 0 min 0,000 mm 0,0 UV-I 0 W/m -4,0 C 1,0 C 4,0 km/h (1 Bft) 0,00 %
23.03.2015 05:30 0,9 C 69 % 1019,3 hPa 0,0 l/m 7,9 km/h (2 Bft) O 98 0 min 0,000 mm 0,0 UV-I 0 W/m -4,1 C -0,6 C 11,9 km/h (2 Bft) 0,00 %
23.03.2015 05:45 0,9 C 69 % 1019,2 hPa 0,0 l/m 6,8 km/h (2 Bft) O-SO 105 0 min 0,000 mm 0,0 UV-I 0 W/m -4,1 C 0,5 C 11,9 km/h (2 Bft) 0,00 %
23.03.2015 06:00 0,9 C 70 % 1019,3 hPa 0,0 l/m 1,4 km/h (1 Bft) O 91 0 min 0,000 mm 0,0 UV-I 0 W/m -3,9 C 0,9 C 4,0 km/h (1 Bft) 0,00 %
23.03.2015 06:15 0,8 C 70 % 1019,4 hPa 0,0 l/m 3,2 km/h (1 Bft) O-NO 76 0 min 0,000 mm 0,0 UV-I 0 W/m -4,0 C 0,8 C 4,0 km/h (1 Bft) 0,00 %
23.03.2015 06:30 0,8 C 69 % 1019,4 hPa 0,0 l/m 0,7 km/h (0 Bft) O-SO 121 0 min 0,000 mm 0,0 UV-I 5 W/m -4,2 C 0,8 C 4,0 km/h (1 Bft) 0,00 %
23.03.2015 06:45 0,8 C 69 % 1019,4 hPa 0,0 l/m 0,7 km/h (0 Bft) S-SO 168 0 min 0,000 mm 0,0 UV-I 19 W/m -4,2 C 0,8 C 4,0 km/h (1 Bft) 0,00 %
23.03.2015 07:00 0,9 C 69 % 1019,7 hPa 0,0 l/m 5,4 km/h (1 Bft) O 101 0 min 0,000 mm 0,0 UV-I 33 W/m -4,1 C 0,9 C 7,9 km/h (2 Bft) 0,00 %
23.03.2015 07:15 1,1 C 69 % 1019,4 hPa 0,0 l/m 2,9 km/h (1 Bft) SO 127 0 min 0,000 mm 1,0 UV-I 43 W/m -3,9 C 1,1 C 4,0 km/h (1 Bft) 0,00 %
23.03.2015 07:30 1,3 C 69 % 1019,1 hPa 0,0 l/m 5,8 km/h (2 Bft) O-SO 103 0 min 0,000 mm 1,0 UV-I 47 W/m -3,7 C 1,3 C 7,9 km/h (2 Bft) 0,00 %
23.03.2015 07:45 1,4 C 67 % 1019,0 hPa 0,0 l/m 2,2 km/h (1 Bft) O-SO 103 0 min 0,000 mm 1,0 UV-I 72 W/m -4,0 C 1,4 C 7,9 km/h (2 Bft) 0,00 %
23.03.2015 08:00 1,5 C 67 % 1019,2 hPa 0,0 l/m 1,8 km/h (1 Bft) O-NO 76 0 min 0,000 mm 1,0 UV-I 85 W/m -3,9 C 1,5 C 4,0 km/h (1 Bft) 0,00 %
23.03.2015 08:15 2,0 C 67 % 1019,3 hPa 0,0 l/m 5,8 km/h (2 Bft) O 93 0 min 0,000 mm 1,0 UV-I 121 W/m -3,5 C 2,0 C 11,9 km/h (2 Bft) 0,00 %
23.03.2015 08:30 1,9 C 66 % 1019,1 hPa 0,0 l/m 9,0 km/h (2 Bft) O 96 0 min 0,000 mm 1,0 UV-I 143 W/m -3,8 C -0,5 C 11,9 km/h (2 Bft) 0,00 %
23.03.2015 08:45 2,0 C 66 % 1018,9 hPa 0,0 l/m 10,4 km/h (2 Bft) O 87 0 min 0,000 mm 1,0 UV-I 123 W/m -3,7 C -1,5 C 15,8 km/h (3 Bft) 0,00 %
23.03.2015 09:00 2,0 C 67 % 1019,0 hPa 0,0 l/m 7,2 km/h (2 Bft) O 98 0 min 0,000 mm 1,0 UV-I 120 W/m -3,5 C 1,2 C 11,9 km/h (2 Bft) 0,00 %
23.03.2015 09:15 2,0 C 67 % 1019,1 hPa 0,0 l/m 9,0 km/h (2 Bft) O 93 0 min 0,000 mm 1,0 UV-I 120 W/m -3,5 C -0,4 C 11,9 km/h (2 Bft) 0,00 %
23.03.2015 09:30 2,3 C 66 % 1019,3 hPa 0,0 l/m 0,0 km/h (0 Bft) NO 42 0 min 0,000 mm 2,0 UV-I 144 W/m -3,4 C 2,3 C 0,0 km/h (0 Bft) 0,00 %
23.03.2015 09:45 2,3 C 67 % 1019,0 hPa 0,0 l/m 4,7 km/h (1 Bft) O-NO 78 0 min 0,000 mm 2,0 UV-I 175 W/m -3,2 C 2,3 C 11,9 km/h (2 Bft) 0,00 %
23.03.2015 10:00 2,3 C 67 % 1019,2 hPa 0,0 l/m 14,0 km/h (3 Bft) O-SO 112 0 min 0,000 mm 2,0 UV-I 144 W/m -3,2 C -3,6 C 15,8 km/h (3 Bft) 0,00 %
23.03.2015 10:15 2,4 C 71 % 1019,2 hPa 0,0 l/m 5,8 km/h (2 Bft) O-SO 106 0 min 0,000 mm 2,0 UV-I 161 W/m -2,3 C 2,4 C 7,9 km/h (2 Bft) 0,00 %
23.03.2015 10:30 2,7 C 70 % 1018,9 hPa 0,0 l/m 10,4 km/h (2 Bft) O-SO 108 0 min 0,000 mm 2,0 UV-I 198 W/m -2,2 C -0,8 C 11,9 km/h (2 Bft) 0,00 %
23.03.2015 10:45 2,9 C 70 % 1018,9 hPa 0,0 l/m 3,2 km/h (1 Bft) O-SO 123 0 min 0,000 mm 2,0 UV-I 180 W/m -2,0 C 2,9 C 4,0 km/h (1 Bft) 0,00 %
23.03.2015 11:00 3,2 C 70 % 1018,7 hPa 0,0 l/m 0,0 km/h (0 Bft) O-SO 120 0 min 0,000 mm 2,0 UV-I 216 W/m -1,7 C 3,2 C 0,0 km/h (0 Bft) 0,00 %
23.03.2015 11:15 3,6 C 69 % 1018,2 hPa 0,0 l/m 6,8 km/h (2 Bft) O 100 0 min 0,000 mm 2,0 UV-I 251 W/m -1,5 C 3,2 C 7,9 km/h (2 Bft) 0,00 %
23.03.2015 11:30 3,6 C 70 % 1018,1 hPa 0,0 l/m 5,4 km/h (1 Bft) O-SO 108 0 min 0,000 mm 3,0 UV-I 258 W/m -1,3 C 3,6 C 7,9 km/h (2 Bft) 0,00 %
23.03.2015 11:45 4,2 C 67 % 1017,8 hPa 0,0 l/m 0,4 km/h (0 Bft) O-SO 122 0 min 0,000 mm 3,0 UV-I 276 W/m -1,4 C 4,2 C 4,0 km/h (1 Bft) 0,00 %
23.03.2015 12:00 4,6 C 67 % 1017,5 hPa 0,0 l/m 0,4 km/h (0 Bft) O-SO 113 0 min 0,000 mm 3,0 UV-I 320 W/m -1,0 C 4,6 C 4,0 km/h (1 Bft) 0,00 %
23.03.2015 12:15 4,9 C 68 % 1017,3 hPa 0,0 l/m 1,4 km/h (1 Bft) O 95 0 min 0,000 mm 3,0 UV-I 338 W/m -0,5 C 4,9 C 4,0 km/h (1 Bft) 0,00 %
23.03.2015 12:30 5,0 C 67 % 1017,1 hPa 0,0 l/m 0,4 km/h (0 Bft) S 169 0 min 0,000 mm 3,0 UV-I 297 W/m -0,6 C 5,0 C 4,0 km/h (1 Bft) 0,00 %
23.03.2015 12:45 5,1 C 68 % 1016,8 hPa 0,0 l/m 7,9 km/h (2 Bft) O-SO 102 0 min 0,000 mm 3,0 UV-I 261 W/m -0,3 C 3,8 C 7,9 km/h (2 Bft) 0,00 %
23.03.2015 13:00 5,2 C 68 % 1016,6 hPa 0,0 l/m 0,0 km/h (0 Bft) SO 124 0 min 0,000 mm 3,0 UV-I 273 W/m -0,2 C 5,2 C 0,0 km/h (0 Bft) 0,00 %
23.03.2015 13:15 5,7 C 64 % 1016,3 hPa 0,0 l/m 0,0 km/h (0 Bft) S 174 0 min 0,000 mm 3,0 UV-I 312 W/m -0,6 C 5,7 C 0,0 km/h (0 Bft) 0,00 %
23.03.2015 13:30 6,6 C 61 % 1015,8 hPa 0,0 l/m 0,0 km/h (0 Bft) W-SW 237 0 min 0,000 mm 3,0 UV-I 344 W/m -0,4 C 6,6 C 0,0 km/h (0 Bft) 0,00 %
23.03.2015 13:45 7,2 C 61 % 1015,5 hPa 0,0 l/m 0,4 km/h (0 Bft) O-SO 108 15 min 0,000 mm 3,0 UV-I 361 W/m 0,2 C 7,2 C 4,0 km/h (1 Bft) 0,00 %
23.03.2015 14:00 6,4 C 63 % 1015,4 hPa 0,0 l/m 4,3 km/h (1 Bft) O-NO 76 0 min 0,000 mm 2,0 UV-I 269 W/m -0,1 C 6,4 C 7,9 km/h (2 Bft) 0,00 %
23.03.2015 14:15 6,5 C 61 % 1015,2 hPa 0,0 l/m 0,0 km/h (0 Bft) S 173 0 min 0,000 mm 2,0 UV-I 209 W/m -0,5 C 6,5 C 0,0 km/h (0 Bft) 0,00 %
23.03.2015 14:30 6,5 C 63 % 1014,8 hPa 0,0 l/m 0,0 km/h (0 Bft) O-SO 121 0 min 0,000 mm 2,0 UV-I 199 W/m -0,0 C 6,5 C 0,0 km/h (0 Bft) 0,00 %
23.03.2015 14:45 6,4 C 63 % 1014,5 hPa 0,0 l/m 0,0 km/h (0 Bft) S-SO 154 15 min 0,000 mm 2,0 UV-I 410 W/m -0,1 C 6,4 C 0,0 km/h (0 Bft) 0,00 %
23.03.2015 15:00 6,5 C 65 % 1014,4 hPa 0,0 l/m 0,0 km/h (0 Bft) N 355 15 min 0,000 mm 2,0 UV-I 415 W/m 0,4 C 6,5 C 0,0 km/h (0 Bft) 0,00 %
23.03.2015 15:15 6,6 C 64 % 1014,2 hPa 0,0 l/m 0,4 km/h (0 Bft) O-SO 111 15 min 0,000 mm 2,0 UV-I 420 W/m 0,3 C 6,6 C 4,0 km/h (1 Bft) 0,00 %
23.03.2015 15:30 6,7 C 64 % 1014,1 hPa 0,0 l/m 0,0 km/h (0 Bft) S-SO 150 15 min 0,000 mm 2,0 UV-I 415 W/m 0,4 C 6,7 C 0,0 km/h (0 Bft) 0,00 %
23.03.2015 15:45 6,9 C 64 % 1013,7 hPa 0,0 l/m 2,2 km/h (1 Bft) O-NO 77 15 min 0,000 mm 2,0 UV-I 410 W/m 0,6 C 6,9 C 4,0 km/h (1 Bft) 0,00 %
23.03.2015 16:00 7,5 C 62 % 1013,4 hPa 0,0 l/m 3,2 km/h (1 Bft) O 85 15 min 0,000 mm 1,0 UV-I 409 W/m 0,7 C 7,5 C 4,0 km/h (1 Bft) 0,00 %
23.03.2015 16:15 7,6 C 62 % 1013,2 hPa 0,0 l/m 0,4 km/h (0 Bft) O 91 15 min 0,000 mm 1,0 UV-I 396 W/m 0,8 C 7,6 C 4,0 km/h (1 Bft) 0,00 %
23.03.2015 16:30 7,8 C 62 % 1012,8 hPa 0,0 l/m 0,0 km/h (0 Bft) SO 138 15 min 0,000 mm 1,0 UV-I 366 W/m 1,0 C 7,8 C 0,0 km/h (0 Bft) 0,00 %
23.03.2015 16:45 7,8 C 62 % 1012,8 hPa 0,0 l/m 0,0 km/h (0 Bft) SO 128 15 min 0,000 mm 1,0 UV-I 303 W/m 1,0 C 7,8 C 0,0 km/h (0 Bft) 0,00 %
23.03.2015 17:00 7,8 C 62 % 1012,8 hPa 0,0 l/m 0,0 km/h (0 Bft) O-SO 118 15 min 0,000 mm 1,0 UV-I 257 W/m 1,0 C 7,8 C 0,0 km/h (0 Bft) 0,00 %
23.03.2015 17:15 7,6 C 63 % 1012,4 hPa 0,0 l/m 0,0 km/h (0 Bft) SO 145 15 min 0,000 mm 1,0 UV-I 190 W/m 1,0 C 7,6 C 0,0 km/h (0 Bft) 0,00 %
23.03.2015 17:30 7,4 C 62 % 1012,4 hPa 0,0 l/m 0,0 km/h (0 Bft) S 173 15 min 0,000 mm 0,0 UV-I 123 W/m 0,6 C 7,4 C 0,0 km/h (0 Bft) 0,00 %
23.03.2015 17:45 7,0 C 63 % 1012,3 hPa 0,0 l/m 0,0 km/h (0 Bft) S 173 15 min 0,000 mm 0,0 UV-I 66 W/m 0,4 C 7,0 C 0,0 km/h (0 Bft) 0,00 %
23.03.2015 18:00 6,4 C 70 % 1012,2 hPa 0,0 l/m 0,0 km/h (0 Bft) S 173 15 min 0,000 mm 0,0 UV-I 27 W/m 1,3 C 6,4 C 0,0 km/h (0 Bft) 0,00 %
23.03.2015 18:15 5,6 C 74 % 1012,2 hPa 0,0 l/m 0,0 km/h (0 Bft) S 173 0 min 0,000 mm 0,0 UV-I 3 W/m 1,3 C 5,6 C 0,0 km/h (0 Bft) 0,00 %
23.03.2015 18:30 4,9 C 80 % 1012,4 hPa 0,0 l/m 0,0 km/h (0 Bft) S 173 0 min 0,000 mm 0,0 UV-I 0 W/m 1,7 C 4,9 C 0,0 km/h (0 Bft) 0,00 %
23.03.2015 18:45 4,4 C 81 % 1012,3 hPa 0,0 l/m 0,0 km/h (0 Bft) S 173 0 min 0,000 mm 0,0 UV-I 0 W/m 1,4 C 4,4 C 0,0 km/h (0 Bft) 0,00 %
23.03.2015 19:00 4,0 C 81 % 1012,5 hPa 0,0 l/m 0,0 km/h (0 Bft) S 182 0 min 0,000 mm 0,0 UV-I 0 W/m 1,0 C 4,0 C 0,0 km/h (0 Bft) 0,00 %
23.03.2015 19:15 3,8 C 83 % 1012,4 hPa 0,0 l/m 0,0 km/h (0 Bft) S 182 0 min 0,000 mm 0,0 UV-I 0 W/m 1,2 C 3,8 C 0,0 km/h (0 Bft) 0,00 %
23.03.2015 19:30 3,4 C 83 % 1012,4 hPa 0,0 l/m 0,0 km/h (0 Bft) S 177 0 min 0,000 mm 0,0 UV-I 0 W/m 0,8 C 3,4 C 0,0 km/h (0 Bft) 0,00 %
23.03.2015 19:45 3,3 C 84 % 1012,4 hPa 0,0 l/m 0,0 km/h (0 Bft) S 177 0 min 0,000 mm 0,0 UV-I 0 W/m 0,9 C 3,3 C 0,0 km/h (0 Bft) 0,00 %
23.03.2015 20:00 3,2 C 84 % 1012,4 hPa 0,0 l/m 0,0 km/h (0 Bft) S 181 0 min 0,000 mm 0,0 UV-I 0 W/m 0,8 C 3,2 C 0,0 km/h (0 Bft) 0,00 %
23.03.2015 20:15 3,0 C 84 % 1012,4 hPa 0,0 l/m 0,0 km/h (0 Bft) S 181 0 min 0,000 mm 0,0 UV-I 0 W/m 0,6 C 3,0 C 0,0 km/h (0 Bft) 0,00 %
23.03.2015 20:30 2,8 C 85 % 1012,6 hPa 0,0 l/m 0,0 km/h (0 Bft) S 181 0 min 0,000 mm 0,0 UV-I 0 W/m 0,5 C 2,8 C 0,0 km/h (0 Bft) 0,00 %
23.03.2015 20:45 2,7 C 81 % 1012,3 hPa 0,0 l/m 0,0 km/h (0 Bft) S 181 0 min 0,000 mm 0,0 UV-I 0 W/m -0,2 C 2,7 C 0,0 km/h (0 Bft) 0,00 %
23.03.2015 21:00 2,4 C 81 % 1012,5 hPa 0,0 l/m 0,0 km/h (0 Bft) S 181 0 min 0,000 mm 0,0 UV-I 0 W/m -0,5 C 2,4 C 0,0 km/h (0 Bft) 0,00 %
23.03.2015 21:15 2,0 C 83 % 1012,4 hPa 0,0 l/m 0,0 km/h (0 Bft) S 181 0 min 0,000 mm 0,0 UV-I 0 W/m -0,6 C 2,0 C 0,0 km/h (0 Bft) 0,00 %
23.03.2015 21:30 1,9 C 83 % 1012,5 hPa 0,0 l/m 0,0 km/h (0 Bft) S 185 0 min 0,000 mm 0,0 UV-I 0 W/m -0,7 C 1,9 C 0,0 km/h (0 Bft) 0,00 %
23.03.2015 21:45 2,0 C 83 % 1012,2 hPa 0,0 l/m 0,0 km/h (0 Bft) S 190 0 min 0,000 mm 0,0 UV-I 0 W/m -0,6 C 2,0 C 0,0 km/h (0 Bft) 0,00 %
23.03.2015 22:00 2,0 C 83 % 1012,0 hPa 0,0 l/m 0,0 km/h (0 Bft) S 190 0 min 0,000 mm 0,0 UV-I 0 W/m -0,6 C 2,0 C 0,0 km/h (0 Bft) 0,00 %
23.03.2015 22:15 1,8 C 83 % 1011,8 hPa 0,0 l/m 0,0 km/h (0 Bft) S 190 0 min 0,000 mm 0,0 UV-I 0 W/m -0,8 C 1,8 C 0,0 km/h (0 Bft) 0,00 %
23.03.2015 22:30 1,4 C 84 % 1012,0 hPa 0,0 l/m 0,0 km/h (0 Bft) S 190 0 min 0,000 mm 0,0 UV-I 0 W/m -1,0 C 1,4 C 0,0 km/h (0 Bft) 0,00 %
23.03.2015 22:45 1,2 C 84 % 1011,7 hPa 0,0 l/m 0,0 km/h (0 Bft) S 173 0 min 0,000 mm 0,0 UV-I 0 W/m -1,2 C 1,2 C 0,0 km/h (0 Bft) 0,00 %
23.03.2015 23:00 1,0 C 84 % 1011,9 hPa 0,0 l/m 0,0 km/h (0 Bft) S 173 0 min 0,000 mm 0,0 UV-I 0 W/m -1,4 C 1,0 C 0,0 km/h (0 Bft) 0,00 %
23.03.2015 23:15 0,8 C 85 % 1011,8 hPa 0,0 l/m 0,0 km/h (0 Bft) S 173 0 min 0,000 mm 0,0 UV-I 0 W/m -1,4 C 0,8 C 0,0 km/h (0 Bft) 0,00 %
23.03.2015 23:30 0,9 C 85 % 1011,7 hPa 0,0 l/m 0,0 km/h (0 Bft) S 173 0 min 0,000 mm 0,0 UV-I 0 W/m -1,3 C 0,9 C 0,0 km/h (0 Bft) 0,00 %
23.03.2015 23:45 0,9 C 86 % 1011,6 hPa 0,0 l/m 0,0 km/h (0 Bft) S 173 0 min 0,000 mm 0,0 UV-I 0 W/m -1,2 C 0,9 C 0,0 km/h (0 Bft) 0,00 %
_ Min-Zeit 06:15 13:30 23:45 - 00:00 - - - - - - 06:30 02:45 00:00 00:00
Minimum _ 0,8 C 61 % 1011,6 hPa - 0,0 km/h (0 Bft) - - - - - - -4,2 C -6,2 C 0,0 km/h (0 Bft) 0,00 %
_ Max-Zeit 16:30 23:45 00:00 00:00 02:45 - - 13:45 00:00 11:30 15:15 18:30 16:30 01:45 00:00
Maximum _ 7,8 C 86 % 1020,1 hPa 0,0 l/m 17,3 km/h
O-SO (3 Bft)
- - 15 min 0,000 mm 3,0 UV-I 420 W/m 1,7 C 7,8 C 19,8 km/h
O (3 Bft)
0,00 %
Durchschnitt _ 3,3 C 71 % 1016,3 hPa #0,0 l/m 3,0 km/h (1 Bft) O - #3:45 h #0,000 mm 1,9 UV-I 215 W/m -1,5 C 2,8 C 4,9 km/h (1 Bft) 0,00 %